Time,TemperatureF,DewpointF,PressureIn,WindDirection,WindDirectionDegrees,WindSpeedMPH,WindSpeedGustMPH,Humidity,HourlyPrecipIn,Conditions,Clouds,dailyrainin,SolarRadiationWatts/m^2,SoftwareType,DateUTC
2013-08-21 00:03:00,76.0,68.6,29.86,WSW,253,2.0,6.0,78,0.00,,,0.00,0,HR-IXPWINDi_r2_v1.2.,2013-08-21 05:03:00,
2013-08-21 00:08:00,75.8,68.4,29.86,South,181,3.0,7.0,78,0.00,,,0.00,0,HR-IXPWINDi_r2_v1.2.,2013-08-21 05:08:00,
2013-08-21 00:14:00,75.7,68.7,29.86,West,261,1.0,8.0,79,0.00,,,0.00,0,HR-IXPWINDi_r2_v1.2.,2013-08-21 05:14:00,
2013-08-21 00:19:00,75.6,68.6,29.86,SSE,165,1.0,8.0,79,0.00,,,0.00,0,HR-IXPWINDi_r2_v1.2.,2013-08-21 05:19:00,
2013-08-21 00:24:00,75.6,68.6,29.86,South,169,1.0,8.0,79,0.00,,,0.00,0,HR-IXPWINDi_r2_v1.2.,2013-08-21 05:24:00,
2013-08-21 00:29:00,75.6,68.6,29.86,SSW,202,5.0,8.0,79,0.00,,,0.00,0,HR-IXPWINDi_r2_v1.2.,2013-08-21 05:29:00,
2013-08-21 00:35:00,75.8,68.8,29.86,WSW,242,4.0,10.0,79,0.00,,,0.00,0,HR-IXPWINDi_r2_v1.2.,2013-08-21 05:35:00,
2013-08-21 00:40:00,76.0,68.6,29.86,South,186,5.0,10.0,78,0.00,,,0.00,0,HR-IXPWINDi_r2_v1.2.,2013-08-21 05:40:00,
2013-08-21 00:45:00,76.0,68.6,29.86,South,181,3.0,12.0,78,0.00,,,0.00,0,HR-IXPWINDi_r2_v1.2.,2013-08-21 05:45:00,
2013-08-21 00:50:00,76.1,68.7,29.86,SSE,161,4.0,12.0,78,0.00,,,0.00,0,HR-IXPWINDi_r2_v1.2.,2013-08-21 05:50:00,
2013-08-21 00:56:00,76.1,68.7,29.86,SW,216,5.0,12.0,78,0.00,,,0.00,0,HR-IXPWINDi_r2_v1.2.,2013-08-21 05:56:00,
2013-08-21 01:01:00,76.0,68.6,29.86,South,180,8.0,12.0,78,0.00,,,0.00,0,HR-IXPWINDi_r2_v1.2.,2013-08-21 06:01:00,
2013-08-21 01:06:00,76.0,68.6,29.87,SW,215,0.0,13.0,78,0.00,,,0.00,0,HR-IXPWINDi_r2_v1.2.,2013-08-21 06:06:00,
2013-08-21 01:11:00,75.9,68.5,29.87,WSW,238,4.0,13.0,78,0.00,,,0.00,0,HR-IXPWINDi_r2_v1.2.,2013-08-21 06:11:00,
2013-08-21 01:17:00,76.0,68.6,29.86,West,264,4.0,12.0,78,0.00,,,0.00,0,HR-IXPWINDi_r2_v1.2.,2013-08-21 06:17:00,
2013-08-21 01:22:00,75.9,68.1,29.87,SSE,150,3.0,12.0,77,0.00,,,0.00,0,HR-IXPWINDi_r2_v1.2.,2013-08-21 06:22:00,
2013-08-21 01:27:00,75.9,68.5,29.87,South,180,4.0,13.0,78,0.00,,,0.00,0,HR-IXPWINDi_r2_v1.2.,2013-08-21 06:27:00,
2013-08-21 01:32:00,75.7,68.3,29.87,SW,220,8.0,14.0,78,0.00,,,0.00,0,HR-IXPWINDi_r2_v1.2.,2013-08-21 06:32:00,
2013-08-21 01:37:00,75.7,68.3,29.87,SW,225,5.0,14.0,78,0.00,,,0.00,0,HR-IXPWINDi_r2_v1.2.,2013-08-21 06:37:00,
2013-08-21 01:42:00,75.5,68.1,29.87,SSE,165,4.0,12.0,78,0.00,,,0.00,0,HR-IXPWINDi_r2_v1.2.,2013-08-21 06:42:00,
2013-08-21 01:48:00,75.5,68.1,29.87,WSW,257,5.0,16.0,78,0.00,,,0.00,0,HR-IXPWINDi_r2_v1.2.,2013-08-21 06:48:00,
2013-08-21 01:53:00,75.3,68.3,29.87,South,173,8.0,16.0,79,0.00,,,0.00,0,HR-IXPWINDi_r2_v1.2.,2013-08-21 06:53:00,
2013-08-21 01:58:00,75.3,67.9,29.87,WSW,251,5.0,17.0,78,0.00,,,0.00,0,HR-IXPWINDi_r2_v1.2.,2013-08-21 06:58:00,
2013-08-21 02:04:00,75.1,68.1,29.87,WSW,242,1.0,17.0,79,0.00,,,0.00,0,HR-IXPWINDi_r2_v1.2.,2013-08-21 07:04:00,
2013-08-21 02:09:00,74.9,67.9,29.87,West,266,1.0,13.0,79,0.00,,,0.00,0,HR-IXPWINDi_r2_v1.2.,2013-08-21 07:09:00,
2013-08-21 02:14:00,74.7,68.1,29.87,SW,225,8.0,14.0,80,0.00,,,0.00,0,HR-IXPWINDi_r2_v1.2.,2013-08-21 07:14:00,
2013-08-21 02:19:00,74.5,67.9,29.87,SSW,207,4.0,14.0,80,0.00,,,0.00,0,HR-IXPWINDi_r2_v1.2.,2013-08-21 07:19:00,
2013-08-21 02:25:00,74.3,67.7,29.87,SSW,213,2.0,12.0,80,0.00,,,0.00,0,HR-IXPWINDi_r2_v1.2.,2013-08-21 07:25:00,
2013-08-21 02:30:00,74.2,67.6,29.86,SW,216,5.0,12.0,80,0.00,,,0.00,0,HR-IXPWINDi_r2_v1.2.,2013-08-21 07:30:00,
2013-08-21 02:35:00,74.1,67.8,29.86,WSW,249,6.0,11.0,81,0.00,,,0.00,0,HR-IXPWINDi_r2_v1.2.,2013-08-21 07:35:00,
2013-08-21 02:40:00,74.0,67.7,29.86,SW,223,4.0,11.0,81,0.00,,,0.00,0,HR-IXPWINDi_r2_v1.2.,2013-08-21 07:40:00,
2013-08-21 02:46:00,73.9,67.6,29.87,WSW,248,9.0,11.0,81,0.00,,,0.00,0,HR-IXPWINDi_r2_v1.2.,2013-08-21 07:46:00,
2013-08-21 02:51:00,73.7,67.4,29.87,West,265,7.0,12.0,81,0.00,,,0.00,0,HR-IXPWINDi_r2_v1.2.,2013-08-21 07:51:00,
2013-08-21 02:56:00,73.6,67.3,29.87,SSW,208,8.0,14.0,81,0.00,,,0.00,0,HR-IXPWINDi_r2_v1.2.,2013-08-21 07:56:00,
2013-08-21 03:01:00,73.4,67.5,29.87,SW,220,3.0,14.0,82,0.00,,,0.00,0,HR-IXPWINDi_r2_v1.2.,2013-08-21 08:01:00,
2013-08-21 03:06:00,73.3,67.4,29.87,SW,219,6.0,12.0,82,0.00,,,0.00,0,HR-IXPWINDi_r2_v1.2.,2013-08-21 08:06:00,
2013-08-21 03:11:00,73.1,67.2,29.87,SW,221,2.0,10.0,82,0.00,,,0.00,0,HR-IXPWINDi_r2_v1.2.,2013-08-21 08:11:00,
2013-08-21 03:17:00,73.0,67.1,29.87,SSW,205,3.0,9.0,82,0.00,,,0.00,0,HR-IXPWINDi_r2_v1.2.,2013-08-21 08:17:00,
2013-08-21 03:22:00,72.9,67.0,29.87,WSW,254,2.0,10.0,82,0.00,,,0.00,0,HR-IXPWINDi_r2_v1.2.,2013-08-21 08:22:00,
2013-08-21 03:27:00,72.8,66.9,29.87,SSW,207,3.0,10.0,82,0.00,,,0.00,0,HR-IXPWINDi_r2_v1.2.,2013-08-21 08:27:00,
2013-08-21 03:32:00,72.9,67.0,29.87,SW,219,8.0,10.0,82,0.00,,,0.00,0,HR-IXPWINDi_r2_v1.2.,2013-08-21 08:32:00,
2013-08-21 03:38:00,72.9,67.0,29.87,SSW,210,6.0,12.0,82,0.00,,,0.00,0,HR-IXPWINDi_r2_v1.2.,2013-08-21 08:38:00,
2013-08-21 03:43:00,72.8,66.9,29.87,SSW,204,3.0,12.0,82,0.00,,,0.00,0,HR-IXPWINDi_r2_v1.2.,2013-08-21 08:43:00,
2013-08-21 03:48:00,72.7,66.8,29.88,SSW,194,5.0,12.0,82,0.00,,,0.00,0,HR-IXPWINDi_r2_v1.2.,2013-08-21 08:48:00,
2013-08-21 03:53:00,72.7,66.8,29.87,SW,229,2.0,12.0,82,0.00,,,0.00,0,HR-IXPWINDi_r2_v1.2.,2013-08-21 08:53:00,
2013-08-21 03:58:00,72.6,66.7,29.87,South,184,8.0,11.0,82,0.00,,,0.00,0,HR-IXPWINDi_r2_v1.2.,2013-08-21 08:58:00,
2013-08-21 04:03:00,72.5,66.6,29.87,WNW,282,3.0,11.0,82,0.00,,,0.00,0,HR-IXPWINDi_r2_v1.2.,2013-08-21 09:03:00,
2013-08-21 04:09:00,72.4,66.9,29.87,WSW,237,3.0,11.0,83,0.00,,,0.00,0,HR-IXPWINDi_r2_v1.2.,2013-08-21 09:09:00,
2013-08-21 04:14:00,72.3,66.8,29.87,South,190,5.0,14.0,83,0.00,,,0.00,0,HR-IXPWINDi_r2_v1.2.,2013-08-21 09:14:00,
2013-08-21 04:19:00,72.2,66.7,29.87,SW,231,5.0,14.0,83,0.00,,,0.00,0,HR-IXPWINDi_r2_v1.2.,2013-08-21 09:19:00,
2013-08-21 04:24:00,72.1,66.6,29.87,West,275,3.0,12.0,83,0.00,,,0.00,0,HR-IXPWINDi_r2_v1.2.,2013-08-21 09:24:00,
2013-08-21 04:29:00,72.0,66.5,29.87,SW,217,2.0,12.0,83,0.00,,,0.00,0,HR-IXPWINDi_r2_v1.2.,2013-08-21 09:29:00,
2013-08-21 04:35:00,72.0,66.5,29.87,SSW,196,2.0,8.0,83,0.00,,,0.00,0,HR-IXPWINDi_r2_v1.2.,2013-08-21 09:35:00,
2013-08-21 04:40:00,72.0,66.5,29.88,WSW,248,4.0,8.0,83,0.00,,,0.00,0,HR-IXPWINDi_r2_v1.2.,2013-08-21 09:40:00,
2013-08-21 04:45:00,72.1,66.6,29.87,SSW,201,5.0,8.0,83,0.00,,,0.00,0,HR-IXPWINDi_r2_v1.2.,2013-08-21 09:45:00,
2013-08-21 04:50:00,72.0,66.5,29.87,SW,223,1.0,8.0,83,0.00,,,0.00,0,HR-IXPWINDi_r2_v1.2.,2013-08-21 09:50:00,
2013-08-21 04:56:00,71.8,66.6,29.88,SSW,210,6.0,11.0,84,0.00,,,0.00,0,HR-IXPWINDi_r2_v1.2.,2013-08-21 09:56:00,
2013-08-21 05:01:00,71.6,66.4,29.87,SSW,192,6.0,12.0,84,0.00,,,0.00,0,HR-IXPWINDi_r2_v1.2.,2013-08-21 10:01:00,
2013-08-21 05:06:00,71.5,66.3,29.87,WSW,244,1.0,12.0,84,0.00,,,0.00,0,HR-IXPWINDi_r2_v1.2.,2013-08-21 10:06:00,
2013-08-21 05:11:00,71.5,66.3,29.88,SW,214,8.0,9.0,84,0.00,,,0.00,0,HR-IXPWINDi_r2_v1.2.,2013-08-21 10:11:00,
2013-08-21 05:16:00,71.3,66.2,29.88,SW,221,2.0,11.0,84,0.00,,,0.00,0,HR-IXPWINDi_r2_v1.2.,2013-08-21 10:16:00,
2013-08-21 05:22:00,71.3,66.2,29.88,West,267,3.0,11.0,84,0.00,,,0.00,0,HR-IXPWINDi_r2_v1.2.,2013-08-21 10:22:00,
2013-08-21 05:27:00,71.4,66.3,29.88,WSW,244,7.0,9.0,84,0.00,,,0.00,0,HR-IXPWINDi_r2_v1.2.,2013-08-21 10:27:00,
2013-08-21 05:32:00,71.5,66.3,29.88,SSW,205,6.0,9.0,84,0.00,,,0.00,0,HR-IXPWINDi_r2_v1.2.,2013-08-21 10:32:00,
2013-08-21 05:37:00,71.6,66.4,29.89,SW,229,3.0,11.0,84,0.00,,,0.00,0,HR-IXPWINDi_r2_v1.2.,2013-08-21 10:37:00,
2013-08-21 05:42:00,71.5,66.3,29.89,SSW,204,3.0,11.0,84,0.00,,,0.00,0,HR-IXPWINDi_r2_v1.2.,2013-08-21 10:42:00,
2013-08-21 05:48:00,71.5,66.3,29.89,SSW,212,3.0,9.0,84,0.00,,,0.00,0,HR-IXPWINDi_r2_v1.2.,2013-08-21 10:48:00,
2013-08-21 05:53:00,71.5,66.3,29.89,South,180,5.0,9.0,84,0.00,,,0.00,0,HR-IXPWINDi_r2_v1.2.,2013-08-21 10:53:00,
2013-08-21 05:58:00,71.4,66.3,29.89,SSW,200,2.0,8.0,84,0.00,,,0.00,0,HR-IXPWINDi_r2_v1.2.,2013-08-21 10:58:00,
2013-08-21 06:03:00,71.3,66.2,29.89,SSW,202,2.0,8.0,84,0.00,,,0.00,0,HR-IXPWINDi_r2_v1.2.,2013-08-21 11:03:00,
2013-08-21 06:09:00,71.1,66.3,29.89,SSW,192,0.0,7.0,85,0.00,,,0.00,0,HR-IXPWINDi_r2_v1.2.,2013-08-21 11:09:00,
2013-08-21 06:14:00,70.9,66.1,29.89,SSW,209,3.0,7.0,85,0.00,,,0.00,0,HR-IXPWINDi_r2_v1.2.,2013-08-21 11:14:00,
2013-08-21 06:19:00,70.8,66.0,29.89,SW,219,4.0,7.0,85,0.00,,,0.00,0,HR-IXPWINDi_r2_v1.2.,2013-08-21 11:19:00,
2013-08-21 06:24:00,70.6,66.1,29.89,SW,229,4.0,8.0,86,0.00,,,0.00,0,HR-IXPWINDi_r2_v1.2.,2013-08-21 11:24:00,
2013-08-21 06:29:00,70.6,66.1,29.90,SSW,198,2.0,8.0,86,0.00,,,0.00,0,HR-IXPWINDi_r2_v1.2.,2013-08-21 11:29:00,
2013-08-21 06:35:00,70.6,66.1,29.90,WSW,237,1.0,8.0,86,0.00,,,0.00,0,HR-IXPWINDi_r2_v1.2.,2013-08-21 11:35:00,
2013-08-21 06:40:00,70.6,66.1,29.91,SW,225,0.0,7.0,86,0.00,,,0.00,0,HR-IXPWINDi_r2_v1.2.,2013-08-21 11:40:00,
2013-08-21 06:45:00,70.6,66.1,29.90,SW,223,4.0,8.0,86,0.00,,,0.00,0,HR-IXPWINDi_r2_v1.2.,2013-08-21 11:45:00,
2013-08-21 06:50:00,70.6,66.1,29.91,SW,219,3.0,8.0,86,0.00,,,0.00,9,HR-IXPWINDi_r2_v1.2.,2013-08-21 11:50:00,
2013-08-21 06:56:00,70.6,66.1,29.91,SW,222,5.0,8.0,86,0.00,,,0.00,12,HR-IXPWINDi_r2_v1.2.,2013-08-21 11:56:00,
2013-08-21 07:01:00,70.6,66.1,29.92,SSW,209,3.0,9.0,86,0.00,,,0.00,18,HR-IXPWINDi_r2_v1.2.,2013-08-21 12:01:00,
2013-08-21 07:06:00,70.5,66.0,29.92,SSW,211,0.0,9.0,86,0.00,,,0.00,25,HR-IXPWINDi_r2_v1.2.,2013-08-21 12:06:00,
2013-08-21 07:11:00,70.5,66.0,29.91,SSW,213,0.0,5.0,86,0.00,,,0.00,32,HR-IXPWINDi_r2_v1.2.,2013-08-21 12:11:00,
2013-08-21 07:16:00,70.6,66.1,29.92,SSW,212,0.0,2.0,86,0.00,,,0.00,37,HR-IXPWINDi_r2_v1.2.,2013-08-21 12:16:00,
2013-08-21 07:21:00,70.5,66.0,29.92,SW,215,0.0,2.0,86,0.00,,,0.00,42,HR-IXPWINDi_r2_v1.2.,2013-08-21 12:21:00,
2013-08-21 07:27:00,70.6,66.1,29.92,SW,220,1.0,4.0,86,0.00,,,0.00,44,HR-IXPWINDi_r2_v1.2.,2013-08-21 12:27:00,
2013-08-21 07:32:00,70.6,66.1,29.92,North,360,2.0,4.0,86,0.00,,,0.00,49,HR-IXPWINDi_r2_v1.2.,2013-08-21 12:32:00,
2013-08-21 07:37:00,70.7,66.2,29.92,SSW,210,1.0,4.0,86,0.00,,,0.00,53,HR-IXPWINDi_r2_v1.2.,2013-08-21 12:37:00,
2013-08-21 07:42:00,70.9,66.4,29.92,SSW,202,0.0,4.0,86,0.00,,,0.00,63,HR-IXPWINDi_r2_v1.2.,2013-08-21 12:42:00,
2013-08-21 07:47:00,71.0,66.5,29.92,SSW,194,2.0,6.0,86,0.00,,,0.00,79,HR-IXPWINDi_r2_v1.2.,2013-08-21 12:47:00,
2013-08-21 07:53:00,71.2,66.7,29.92,SSW,193,1.0,7.0,86,0.00,,,0.00,81,HR-IXPWINDi_r2_v1.2.,2013-08-21 12:53:00,
2013-08-21 07:58:00,71.5,66.7,29.92,SSW,204,1.0,7.0,85,0.00,,,0.00,128,HR-IXPWINDi_r2_v1.2.,2013-08-21 12:58:00,
2013-08-21 08:03:00,72.0,66.8,29.92,South,186,3.0,7.0,84,0.00,,,0.00,128,HR-IXPWINDi_r2_v1.2.,2013-08-21 13:03:00,
2013-08-21 08:08:00,72.5,67.0,29.92,SSW,210,1.0,7.0,83,0.00,,,0.00,155,HR-IXPWINDi_r2_v1.2.,2013-08-21 13:08:00,
2013-08-21 08:13:00,72.9,67.0,29.92,SSW,205,2.0,6.0,82,0.00,,,0.00,174,HR-IXPWINDi_r2_v1.2.,2013-08-21 13:13:00,
2013-08-21 08:19:00,73.4,67.2,29.92,SW,214,1.0,6.0,81,0.00,,,0.00,192,HR-IXPWINDi_r2_v1.2.,2013-08-21 13:19:00,
2013-08-21 08:24:00,73.9,67.3,29.92,SW,223,6.0,9.0,80,0.00,,,0.00,204,HR-IXPWINDi_r2_v1.2.,2013-08-21 13:24:00,
2013-08-21 08:29:00,74.3,67.3,29.92,WSW,237,5.0,9.0,79,0.00,,,0.00,218,HR-IXPWINDi_r2_v1.2.,2013-08-21 13:29:00,
2013-08-21 08:34:00,74.6,67.6,29.92,SW,223,0.0,9.0,79,0.00,,,0.00,234,HR-IXPWINDi_r2_v1.2.,2013-08-21 13:34:00,
2013-08-21 08:40:00,75.0,67.6,29.92,SSW,202,3.0,11.0,78,0.00,,,0.00,253,HR-IXPWINDi_r2_v1.2.,2013-08-21 13:40:00,
2013-08-21 08:45:00,75.3,67.5,29.92,SW,236,3.0,14.0,77,0.00,,,0.00,271,HR-IXPWINDi_r2_v1.2.,2013-08-21 13:45:00,
2013-08-21 08:50:00,76.0,68.2,29.92,South,175,7.0,14.0,77,0.00,,,0.00,287,HR-IXPWINDi_r2_v1.2.,2013-08-21 13:50:00,
2013-08-21 08:55:00,76.2,67.6,29.92,SW,219,8.0,9.0,75,0.00,,,0.00,308,HR-IXPWINDi_r2_v1.2.,2013-08-21 13:55:00,
2013-08-21 09:01:00,76.6,67.6,29.92,SSW,203,2.0,13.0,74,0.00,,,0.00,315,HR-IXPWINDi_r2_v1.2.,2013-08-21 14:01:00,
2013-08-21 09:06:00,77.0,68.0,29.92,SW,234,6.0,13.0,74,0.00,,,0.00,334,HR-IXPWINDi_r2_v1.2.,2013-08-21 14:06:00,
2013-08-21 09:11:00,77.5,68.1,29.92,SW,228,2.0,11.0,73,0.00,,,0.00,352,HR-IXPWINDi_r2_v1.2.,2013-08-21 14:11:00,
2013-08-21 09:16:00,77.9,68.1,29.92,South,180,7.0,10.0,72,0.00,,,0.00,378,HR-IXPWINDi_r2_v1.2.,2013-08-21 14:16:00,
2013-08-21 09:22:00,78.4,68.2,29.92,WSW,242,1.0,13.0,71,0.00,,,0.00,403,HR-IXPWINDi_r2_v1.2.,2013-08-21 14:22:00,
2013-08-21 09:27:00,78.9,68.2,29.92,SW,232,2.0,13.0,70,0.00,,,0.00,425,HR-IXPWINDi_r2_v1.2.,2013-08-21 14:27:00,
2013-08-21 09:32:00,79.5,68.4,29.92,SW,223,4.0,11.0,69,0.00,,,0.00,446,HR-IXPWINDi_r2_v1.2.,2013-08-21 14:32:00,
2013-08-21 09:37:00,79.8,68.2,29.92,SW,214,10.0,17.0,68,0.00,,,0.00,461,HR-IXPWINDi_r2_v1.2.,2013-08-21 14:37:00,
2013-08-21 09:43:00,80.4,68.4,29.92,SSW,200,10.0,17.0,67,0.00,,,0.00,450,HR-IXPWINDi_r2_v1.2.,2013-08-21 14:43:00,
2013-08-21 09:48:00,80.7,68.2,29.91,North,360,16.0,16.0,66,0.00,,,0.00,383,HR-IXPWINDi_r2_v1.2.,2013-08-21 14:48:00,
2013-08-21 09:53:00,80.2,67.8,29.91,SW,215,15.0,18.0,66,0.00,,,0.00,250,HR-IXPWINDi_r2_v1.2.,2013-08-21 14:53:00,
2013-08-21 09:58:00,79.5,68.0,29.92,SW,221,4.0,18.0,68,0.00,,,0.00,223,HR-IXPWINDi_r2_v1.2.,2013-08-21 14:58:00,
2013-08-21 10:03:00,79.1,68.0,29.91,SW,231,4.0,18.0,69,0.00,,,0.00,218,HR-IXPWINDi_r2_v1.2.,2013-08-21 15:03:00,
2013-08-21 10:08:00,79.1,67.6,29.91,SW,224,9.0,15.0,68,0.00,,,0.00,229,HR-IXPWINDi_r2_v1.2.,2013-08-21 15:08:00,
2013-08-21 10:13:00,79.3,67.8,29.91,SSW,206,8.0,17.0,68,0.00,,,0.00,441,HR-IXPWINDi_r2_v1.2.,2013-08-21 15:13:00,
2013-08-21 10:19:00,80.7,68.2,29.91,WSW,247,5.0,17.0,66,0.00,,,0.00,534,HR-IXPWINDi_r2_v1.2.,2013-08-21 15:19:00,
2013-08-21 10:24:00,81.9,68.5,29.91,SSW,209,9.0,17.0,64,0.00,,,0.00,503,HR-IXPWINDi_r2_v1.2.,2013-08-21 15:24:00,
2013-08-21 10:29:00,82.1,68.2,29.91,WSW,256,10.0,18.0,63,0.00,,,0.00,455,HR-IXPWINDi_r2_v1.2.,2013-08-21 15:29:00,
2013-08-21 10:34:00,82.4,68.0,29.91,SSW,211,12.0,19.0,62,0.00,,,0.00,564,HR-IXPWINDi_r2_v1.2.,2013-08-21 15:34:00,
2013-08-21 10:41:00,82.9,68.0,29.91,SW,221,5.0,19.0,61,0.00,,,0.00,582,HR-IXPWINDi_r2_v1.2.,2013-08-21 15:41:00,
2013-08-21 10:46:00,83.3,68.4,29.91,North,360,5.0,20.0,61,0.00,,,0.00,592,HR-IXPWINDi_r2_v1.2.,2013-08-21 15:46:00,
2013-08-21 10:51:00,83.5,67.6,29.91,WSW,242,7.0,20.0,59,0.00,,,0.00,606,HR-IXPWINDi_r2_v1.2.,2013-08-21 15:51:00,
2013-08-21 10:56:00,83.8,67.9,29.90,SW,215,10.0,20.0,59,0.00,,,0.00,619,HR-IXPWINDi_r2_v1.2.,2013-08-21 15:56:00,
2013-08-21 11:01:00,83.8,67.9,29.90,SW,219,11.0,22.0,59,0.00,,,0.00,624,HR-IXPWINDi_r2_v1.2.,2013-08-21 16:01:00,
2013-08-21 11:07:00,84.5,68.1,29.90,SW,223,12.0,22.0,58,0.00,,,0.00,628,HR-IXPWINDi_r2_v1.2.,2013-08-21 16:07:00,
2013-08-21 11:12:00,84.9,68.9,29.90,WSW,240,9.0,20.0,59,0.00,,,0.00,615,HR-IXPWINDi_r2_v1.2.,2013-08-21 16:12:00,
2013-08-21 11:17:00,85.9,69.4,29.90,SW,227,10.0,20.0,58,0.00,,,0.00,626,HR-IXPWINDi_r2_v1.2.,2013-08-21 16:17:00,
2013-08-21 11:22:00,85.8,68.2,29.90,WSW,238,4.0,18.0,56,0.00,,,0.00,640,HR-IXPWINDi_r2_v1.2.,2013-08-21 16:22:00,
2013-08-21 11:27:00,85.8,67.7,29.90,North,360,5.0,19.0,55,0.00,,,0.00,659,HR-IXPWINDi_r2_v1.2.,2013-08-21 16:27:00,
2013-08-21 11:32:00,86.7,68.6,29.90,SSW,208,11.0,19.0,55,0.00,,,0.00,682,HR-IXPWINDi_r2_v1.2.,2013-08-21 16:32:00,
2013-08-21 11:37:00,86.6,67.9,29.90,SW,235,6.0,22.0,54,0.00,,,0.00,698,HR-IXPWINDi_r2_v1.2.,2013-08-21 16:37:00,
2013-08-21 11:42:00,86.8,67.6,29.90,South,188,5.0,22.0,53,0.00,,,0.00,701,HR-IXPWINDi_r2_v1.2.,2013-08-21 16:42:00,
2013-08-21 11:48:00,86.9,67.7,29.90,SW,215,7.0,18.0,53,0.00,,,0.00,714,HR-IXPWINDi_r2_v1.2.,2013-08-21 16:48:00,
2013-08-21 11:53:00,87.5,67.7,29.90,North,360,6.0,18.0,52,0.00,,,0.00,705,HR-IXPWINDi_r2_v1.2.,2013-08-21 16:53:00,
2013-08-21 11:58:00,87.6,67.8,29.90,South,178,9.0,17.0,52,0.00,,,0.00,710,HR-IXPWINDi_r2_v1.2.,2013-08-21 16:58:00,
2013-08-21 12:03:00,87.6,67.8,29.90,South,174,5.0,19.0,52,0.00,,,0.00,724,HR-IXPWINDi_r2_v1.2.,2013-08-21 17:03:00,
2013-08-21 12:08:00,87.8,67.9,29.90,SW,222,3.0,19.0,52,0.00,,,0.00,740,HR-IXPWINDi_r2_v1.2.,2013-08-21 17:08:00,
2013-08-21 12:14:00,88.9,69.0,29.90,North,360,13.0,19.0,52,0.00,,,0.00,735,HR-IXPWINDi_r2_v1.2.,2013-08-21 17:14:00,
2013-08-21 12:19:00,89.1,69.1,29.90,SW,229,6.0,13.0,52,0.00,,,0.00,729,HR-IXPWINDi_r2_v1.2.,2013-08-21 17:19:00,
2013-08-21 12:24:00,88.9,68.4,29.90,SSW,205,9.0,13.0,51,0.00,,,0.00,745,HR-IXPWINDi_r2_v1.2.,2013-08-21 17:24:00,
2013-08-21 12:29:00,89.1,68.6,29.90,SW,231,5.0,16.0,51,0.00,,,0.00,765,HR-IXPWINDi_r2_v1.2.,2013-08-21 17:29:00,
2013-08-21 12:34:00,89.6,68.5,29.90,SSW,209,4.0,19.0,50,0.00,,,0.00,775,HR-IXPWINDi_r2_v1.2.,2013-08-21 17:34:00,
2013-08-21 12:40:00,90.0,68.8,29.90,SSW,200,4.0,19.0,50,0.00,,,0.00,775,HR-IXPWINDi_r2_v1.2.,2013-08-21 17:40:00,
2013-08-21 12:45:00,89.9,69.3,29.90,SSE,161,7.0,18.0,51,0.00,,,0.00,784,HR-IXPWINDi_r2_v1.2.,2013-08-21 17:45:00,
2013-08-21 12:50:00,90.8,69.6,29.90,North,360,12.0,15.0,50,0.00,,,0.00,780,HR-IXPWINDi_r2_v1.2.,2013-08-21 17:50:00,
2013-08-21 12:56:00,90.1,68.9,29.90,North,360,6.0,18.0,50,0.00,,,0.00,770,HR-IXPWINDi_r2_v1.2.,2013-08-21 17:56:00,
2013-08-21 13:01:00,91.3,69.4,29.89,North,360,8.0,18.0,49,0.00,,,0.00,773,HR-IXPWINDi_r2_v1.2.,2013-08-21 18:01:00,
2013-08-21 13:06:00,90.4,69.2,29.89,SSW,192,20.0,22.0,50,0.00,,,0.00,786,HR-IXPWINDi_r2_v1.2.,2013-08-21 18:06:00,
2013-08-21 13:11:00,91.2,70.5,29.89,SW,225,7.0,22.0,51,0.00,,,0.00,798,HR-IXPWINDi_r2_v1.2.,2013-08-21 18:11:00,
2013-08-21 13:17:00,91.3,70.0,29.89,South,186,13.0,16.0,50,0.00,,,0.00,805,HR-IXPWINDi_r2_v1.2.,2013-08-21 18:17:00,
2013-08-21 13:22:00,91.9,69.4,29.89,South,190,4.0,16.0,48,0.00,,,0.00,798,HR-IXPWINDi_r2_v1.2.,2013-08-21 18:22:00,
2013-08-21 13:27:00,92.8,70.2,29.89,SW,226,6.0,16.0,48,0.00,,,0.00,796,HR-IXPWINDi_r2_v1.2.,2013-08-21 18:27:00,
2013-08-21 13:32:00,92.6,70.0,29.89,WSW,246,9.0,12.0,48,0.00,,,0.00,805,HR-IXPWINDi_r2_v1.2.,2013-08-21 18:32:00,
2013-08-21 13:37:00,92.5,70.5,29.88,WNW,290,5.0,12.0,49,0.00,,,0.00,810,HR-IXPWINDi_r2_v1.2.,2013-08-21 18:37:00,
2013-08-21 13:43:00,92.5,70.5,29.89,West,269,2.0,19.0,49,0.00,,,0.00,814,HR-IXPWINDi_r2_v1.2.,2013-08-21 18:43:00,
2013-08-21 13:48:00,92.5,70.5,29.89,SSW,211,14.0,19.0,49,0.00,,,0.00,812,HR-IXPWINDi_r2_v1.2.,2013-08-21 18:48:00,
2013-08-21 13:53:00,92.3,69.7,29.89,North,360,17.0,21.0,48,0.00,,,0.00,809,HR-IXPWINDi_r2_v1.2.,2013-08-21 18:53:00,
2013-08-21 13:58:00,93.0,71.0,29.88,North,360,7.0,21.0,49,0.00,,,0.00,809,HR-IXPWINDi_r2_v1.2.,2013-08-21 18:58:00,
2013-08-21 14:03:00,93.7,70.4,29.88,WSW,242,4.0,17.0,47,0.00,,,0.00,803,HR-IXPWINDi_r2_v1.2.,2013-08-21 19:03:00,
2013-08-21 14:08:00,92.9,69.7,29.88,North,360,15.0,19.0,47,0.00,,,0.00,800,HR-IXPWINDi_r2_v1.2.,2013-08-21 19:08:00,
2013-08-21 14:13:00,93.3,70.7,29.89,North,360,7.0,19.0,48,0.00,,,0.00,793,HR-IXPWINDi_r2_v1.2.,2013-08-21 19:13:00,
2013-08-21 14:19:00,93.4,70.7,29.89,SSW,198,7.0,18.0,48,0.00,,,0.00,788,HR-IXPWINDi_r2_v1.2.,2013-08-21 19:19:00,
2013-08-21 14:24:00,93.6,71.5,29.88,North,360,7.0,18.0,49,0.00,,,0.00,793,HR-IXPWINDi_r2_v1.2.,2013-08-21 19:24:00,
2013-08-21 14:29:00,93.4,70.7,29.88,South,184,5.0,20.0,48,0.00,,,0.00,789,HR-IXPWINDi_r2_v1.2.,2013-08-21 19:29:00,
2013-08-21 14:34:00,94.1,72.0,29.88,SW,219,9.0,20.0,49,0.00,,,0.00,782,HR-IXPWINDi_r2_v1.2.,2013-08-21 19:34:00,
2013-08-21 14:39:00,94.6,71.2,29.88,North,360,3.0,17.0,47,0.00,,,0.00,775,HR-IXPWINDi_r2_v1.2.,2013-08-21 19:39:00,
2013-08-21 14:44:00,93.9,70.6,29.88,SSW,192,3.0,17.0,47,0.00,,,0.00,772,HR-IXPWINDi_r2_v1.2.,2013-08-21 19:44:00,
2013-08-21 14:49:00,93.8,70.5,29.88,SW,227,10.0,18.0,47,0.00,,,0.00,765,HR-IXPWINDi_r2_v1.2.,2013-08-21 19:49:00,
2013-08-21 14:55:00,94.7,71.3,29.88,SW,225,3.0,18.0,47,0.00,,,0.00,763,HR-IXPWINDi_r2_v1.2.,2013-08-21 19:55:00,
2013-08-21 15:00:00,94.7,71.3,29.88,SW,223,7.0,16.0,47,0.00,,,0.00,754,HR-IXPWINDi_r2_v1.2.,2013-08-21 20:00:00,
2013-08-21 15:05:00,94.8,71.4,29.88,SW,228,6.0,14.0,47,0.00,,,0.00,744,HR-IXPWINDi_r2_v1.2.,2013-08-21 20:05:00,
2013-08-21 15:10:00,95.1,71.7,29.88,SW,221,11.0,14.0,47,0.00,,,0.00,735,HR-IXPWINDi_r2_v1.2.,2013-08-21 20:10:00,
2013-08-21 15:16:00,94.3,72.2,29.88,SW,214,6.0,16.0,49,0.00,,,0.00,724,HR-IXPWINDi_r2_v1.2.,2013-08-21 20:16:00,
2013-08-21 15:21:00,95.5,71.4,29.88,South,190,3.0,16.0,46,0.00,,,0.00,715,HR-IXPWINDi_r2_v1.2.,2013-08-21 20:21:00,
2013-08-21 15:26:00,94.9,72.1,29.88,SW,231,2.0,17.0,48,0.00,,,0.00,712,HR-IXPWINDi_r2_v1.2.,2013-08-21 20:26:00,
2013-08-21 15:31:00,95.1,71.7,29.88,SW,223,14.0,17.0,47,0.00,,,0.00,701,HR-IXPWINDi_r2_v1.2.,2013-08-21 20:31:00,
2013-08-21 15:36:00,95.0,70.9,29.87,NNW,335,2.0,14.0,46,0.00,,,0.00,693,HR-IXPWINDi_r2_v1.2.,2013-08-21 20:36:00,
2013-08-21 15:42:00,94.8,71.4,29.87,SW,236,3.0,13.0,47,0.00,,,0.00,684,HR-IXPWINDi_r2_v1.2.,2013-08-21 20:42:00,
2013-08-21 15:47:00,94.6,71.2,29.87,North,360,5.0,19.0,47,0.00,,,0.00,673,HR-IXPWINDi_r2_v1.2.,2013-08-21 20:47:00,
2013-08-21 15:52:00,95.3,72.5,29.87,North,360,7.0,19.0,48,0.00,,,0.00,659,HR-IXPWINDi_r2_v1.2.,2013-08-21 20:52:00,
2013-08-21 15:57:00,95.4,71.3,29.87,SW,236,2.0,15.0,46,0.00,,,0.00,652,HR-IXPWINDi_r2_v1.2.,2013-08-21 20:57:00,
2013-08-21 16:02:00,94.7,71.3,29.87,SSW,213,2.0,16.0,47,0.00,,,0.00,636,HR-IXPWINDi_r2_v1.2.,2013-08-21 21:02:00,
2013-08-21 16:08:00,94.6,71.2,29.87,SW,215,7.0,16.0,47,0.00,,,0.00,628,HR-IXPWINDi_r2_v1.2.,2013-08-21 21:08:00,
2013-08-21 16:13:00,95.1,71.7,29.86,SSW,210,3.0,15.0,47,0.00,,,0.00,613,HR-IXPWINDi_r2_v1.2.,2013-08-21 21:13:00,
2013-08-21 16:18:00,95.1,72.9,29.87,SSW,213,3.0,14.0,49,0.00,,,0.00,599,HR-IXPWINDi_r2_v1.2.,2013-08-21 21:18:00,
2013-08-21 16:23:00,95.1,72.3,29.86,West,275,1.0,15.0,48,0.00,,,0.00,585,HR-IXPWINDi_r2_v1.2.,2013-08-21 21:23:00,
2013-08-21 16:28:00,95.4,71.3,29.87,SSW,208,3.0,15.0,46,0.00,,,0.00,573,HR-IXPWINDi_r2_v1.2.,2013-08-21 21:28:00,
2013-08-21 16:33:00,95.2,73.0,29.86,SSW,208,14.0,14.0,49,0.00,,,0.00,561,HR-IXPWINDi_r2_v1.2.,2013-08-21 21:33:00,
2013-08-21 16:39:00,95.4,71.9,29.86,SW,221,4.0,17.0,47,0.00,,,0.00,547,HR-IXPWINDi_r2_v1.2.,2013-08-21 21:39:00,
2013-08-21 16:44:00,94.8,72.6,29.86,West,271,2.0,17.0,49,0.00,,,0.00,534,HR-IXPWINDi_r2_v1.2.,2013-08-21 21:44:00,
2013-08-21 16:49:00,94.8,72.0,29.86,South,182,1.0,14.0,48,0.00,,,0.00,519,HR-IXPWINDi_r2_v1.2.,2013-08-21 21:49:00,
2013-08-21 16:54:00,94.8,72.0,29.86,SW,236,1.0,14.0,48,0.00,,,0.00,503,HR-IXPWINDi_r2_v1.2.,2013-08-21 21:54:00,
2013-08-21 16:59:00,94.5,71.7,29.86,West,260,5.0,14.0,48,0.00,,,0.00,503,HR-IXPWINDi_r2_v1.2.,2013-08-21 21:59:00,
2013-08-21 17:05:00,94.0,71.3,29.86,SSW,200,2.0,14.0,48,0.00,,,0.00,487,HR-IXPWINDi_r2_v1.2.,2013-08-21 22:05:00,
2013-08-21 17:10:00,94.0,71.9,29.86,North,360,9.0,14.0,49,0.00,,,0.00,471,HR-IXPWINDi_r2_v1.2.,2013-08-21 22:10:00,
2013-08-21 17:15:00,93.9,72.4,29.86,SW,227,3.0,15.0,50,0.00,,,0.00,454,HR-IXPWINDi_r2_v1.2.,2013-08-21 22:15:00,
2013-08-21 17:20:00,93.7,71.6,29.86,SW,228,6.0,15.0,49,0.00,,,0.00,436,HR-IXPWINDi_r2_v1.2.,2013-08-21 22:20:00,
2013-08-21 17:25:00,93.3,71.9,29.86,WSW,249,6.0,14.0,50,0.00,,,0.00,422,HR-IXPWINDi_r2_v1.2.,2013-08-21 22:25:00,
2013-08-21 17:31:00,93.1,71.7,29.86,SW,223,4.0,14.0,50,0.00,,,0.00,408,HR-IXPWINDi_r2_v1.2.,2013-08-21 22:31:00,
2013-08-21 17:36:00,93.4,71.9,29.86,SSW,194,6.0,10.0,50,0.00,,,0.00,392,HR-IXPWINDi_r2_v1.2.,2013-08-21 22:36:00,
2013-08-21 17:41:00,93.1,71.7,29.86,SW,226,5.0,14.0,50,0.00,,,0.00,376,HR-IXPWINDi_r2_v1.2.,2013-08-21 22:41:00,
2013-08-21 17:46:00,93.1,72.3,29.86,SW,217,1.0,14.0,51,0.00,,,0.00,362,HR-IXPWINDi_r2_v1.2.,2013-08-21 22:46:00,
2013-08-21 17:51:00,92.9,72.1,29.86,West,271,5.0,9.0,51,0.00,,,0.00,343,HR-IXPWINDi_r2_v1.2.,2013-08-21 22:51:00,
2013-08-21 17:57:00,92.6,71.8,29.86,North,360,5.0,8.0,51,0.00,,,0.00,329,HR-IXPWINDi_r2_v1.2.,2013-08-21 22:57:00,
2013-08-21 18:02:00,92.2,72.0,29.86,SW,226,5.0,9.0,52,0.00,,,0.00,313,HR-IXPWINDi_r2_v1.2.,2013-08-21 23:02:00,
2013-08-21 18:07:00,92.4,73.3,29.86,West,274,0.0,9.0,54,0.00,,,0.00,297,HR-IXPWINDi_r2_v1.2.,2013-08-21 23:07:00,
2013-08-21 18:13:00,92.3,72.7,29.85,South,190,7.0,7.0,53,0.00,,,0.00,276,HR-IXPWINDi_r2_v1.2.,2013-08-21 23:13:00,
2013-08-21 18:18:00,91.7,72.1,29.85,SSW,196,5.0,13.0,53,0.00,,,0.00,265,HR-IXPWINDi_r2_v1.2.,2013-08-21 23:18:00,
2013-08-21 18:23:00,91.3,72.3,29.85,SSW,207,3.0,13.0,54,0.00,,,0.00,251,HR-IXPWINDi_r2_v1.2.,2013-08-21 23:23:00,
2013-08-21 18:28:00,91.1,72.1,29.85,SW,217,2.0,7.0,54,0.00,,,0.00,237,HR-IXPWINDi_r2_v1.2.,2013-08-21 23:28:00,
2013-08-21 18:34:00,90.8,72.4,29.85,SW,236,6.0,7.0,55,0.00,,,0.00,223,HR-IXPWINDi_r2_v1.2.,2013-08-21 23:34:00,
2013-08-21 18:39:00,90.7,72.3,29.85,SSW,213,2.0,7.0,55,0.00,,,0.00,209,HR-IXPWINDi_r2_v1.2.,2013-08-21 23:39:00,
2013-08-21 18:44:00,90.6,72.2,29.85,SSW,201,2.0,7.0,55,0.00,,,0.00,195,HR-IXPWINDi_r2_v1.2.,2013-08-21 23:44:00,
2013-08-21 18:49:00,90.4,72.5,29.85,WSW,240,4.0,5.0,56,0.00,,,0.00,174,HR-IXPWINDi_r2_v1.2.,2013-08-21 23:49:00,
2013-08-21 18:54:00,90.2,72.3,29.85,WSW,250,2.0,5.0,56,0.00,,,0.00,148,HR-IXPWINDi_r2_v1.2.,2013-08-21 23:54:00,
2013-08-21 19:00:00,89.8,72.0,29.85,South,177,1.0,5.0,56,0.00,,,0.00,135,HR-IXPWINDi_r2_v1.2.,2013-08-22 00:00:00,
2013-08-21 19:05:00,89.3,72.0,29.85,South,187,0.0,5.0,57,0.00,,,0.00,121,HR-IXPWINDi_r2_v1.2.,2013-08-22 00:05:00,
2013-08-21 19:10:00,89.0,71.8,29.85,South,186,1.0,7.0,57,0.00,,,0.00,104,HR-IXPWINDi_r2_v1.2.,2013-08-22 00:10:00,
2013-08-21 19:15:00,88.6,71.4,29.86,SSW,193,1.0,7.0,57,0.00,,,0.00,90,HR-IXPWINDi_r2_v1.2.,2013-08-22 00:15:00,
2013-08-21 19:20:00,88.3,71.1,29.86,SW,216,2.0,7.0,57,0.00,,,0.00,76,HR-IXPWINDi_r2_v1.2.,2013-08-22 00:20:00,
2013-08-21 19:26:00,87.9,71.2,29.86,SSW,211,2.0,6.0,58,0.00,,,0.00,63,HR-IXPWINDi_r2_v1.2.,2013-08-22 00:26:00,
2013-08-21 19:31:00,87.6,71.5,29.85,South,191,0.0,6.0,59,0.00,,,0.00,53,HR-IXPWINDi_r2_v1.2.,2013-08-22 00:31:00,
2013-08-21 19:36:00,86.8,71.2,29.85,SSW,200,1.0,4.0,60,0.00,,,0.00,44,HR-IXPWINDi_r2_v1.2.,2013-08-22 00:36:00,
2013-08-21 19:41:00,86.6,71.5,29.85,SW,221,0.0,3.0,61,0.00,,,0.00,35,HR-IXPWINDi_r2_v1.2.,2013-08-22 00:41:00,
2013-08-21 19:47:00,86.2,71.6,29.85,SW,227,2.0,3.0,62,0.00,,,0.00,30,HR-IXPWINDi_r2_v1.2.,2013-08-22 00:47:00,
2013-08-21 19:52:00,85.8,71.7,29.85,SSW,205,1.0,5.0,63,0.00,,,0.00,23,HR-IXPWINDi_r2_v1.2.,2013-08-22 00:52:00,
2013-08-21 19:57:00,85.2,71.6,29.86,SW,218,3.0,5.0,64,0.00,,,0.00,16,HR-IXPWINDi_r2_v1.2.,2013-08-22 00:57:00,
2013-08-21 20:02:00,85.1,71.5,29.85,SW,219,3.0,5.0,64,0.00,,,0.00,11,HR-IXPWINDi_r2_v1.2.,2013-08-22 01:02:00,
2013-08-21 20:07:00,84.7,71.6,29.85,South,181,1.0,5.0,65,0.00,,,0.00,5,HR-IXPWINDi_r2_v1.2.,2013-08-22 01:07:00,
2013-08-21 20:13:00,84.0,71.4,29.86,SSW,193,0.0,4.0,66,0.00,,,0.00,0,HR-IXPWINDi_r2_v1.2.,2013-08-22 01:13:00,
2013-08-21 20:18:00,83.5,71.8,29.86,South,184,1.0,5.0,68,0.00,,,0.00,0,HR-IXPWINDi_r2_v1.2.,2013-08-22 01:18:00,
2013-08-21 20:23:00,83.3,72.0,29.86,South,186,1.0,5.0,69,0.00,,,0.00,0,HR-IXPWINDi_r2_v1.2.,2013-08-22 01:23:00,
2013-08-21 20:29:00,82.7,71.9,29.86,SSW,200,2.0,3.0,70,0.00,,,0.00,0,HR-IXPWINDi_r2_v1.2.,2013-08-22 01:29:00,
2013-08-21 20:34:00,82.2,71.8,29.86,SSW,193,1.0,4.0,71,0.00,,,0.00,0,HR-IXPWINDi_r2_v1.2.,2013-08-22 01:34:00,
2013-08-21 20:39:00,82.1,71.7,29.86,SSE,150,1.0,5.0,71,0.00,,,0.00,0,HR-IXPWINDi_r2_v1.2.,2013-08-22 01:39:00,
2013-08-21 20:44:00,82.0,72.0,29.85,SSW,200,2.0,5.0,72,0.00,,,0.00,0,HR-IXPWINDi_r2_v1.2.,2013-08-22 01:44:00,
2013-08-21 20:50:00,81.8,71.8,29.85,SSW,200,0.0,6.0,72,0.00,,,0.00,0,HR-IXPWINDi_r2_v1.2.,2013-08-22 01:50:00,
2013-08-21 20:55:00,81.7,71.7,29.85,SW,236,2.0,7.0,72,0.00,,,0.00,0,HR-IXPWINDi_r2_v1.2.,2013-08-22 01:55:00,
2013-08-21 21:01:00,81.4,71.5,29.85,SSW,211,0.0,7.0,72,0.00,,,0.00,0,HR-IXPWINDi_r2_v1.2.,2013-08-22 02:01:00,
2013-08-21 21:06:00,81.2,71.7,29.85,South,173,0.0,7.0,73,0.00,,,0.00,0,HR-IXPWINDi_r2_v1.2.,2013-08-22 02:06:00,
2013-08-21 21:11:00,81.1,71.6,29.86,South,184,0.0,4.0,73,0.00,,,0.00,0,HR-IXPWINDi_r2_v1.2.,2013-08-22 02:11:00,
2013-08-21 21:16:00,80.7,71.2,29.86,West,259,0.0,5.0,73,0.00,,,0.00,0,HR-IXPWINDi_r2_v1.2.,2013-08-22 02:16:00,
2013-08-21 21:22:00,80.6,71.1,29.87,South,186,1.0,5.0,73,0.00,,,0.00,0,HR-IXPWINDi_r2_v1.2.,2013-08-22 02:22:00,
2013-08-21 21:27:00,80.4,71.3,29.87,South,188,0.0,5.0,74,0.00,,,0.00,0,HR-IXPWINDi_r2_v1.2.,2013-08-22 02:27:00,
2013-08-21 21:32:00,80.1,71.0,29.88,SW,225,0.0,5.0,74,0.00,,,0.00,0,HR-IXPWINDi_r2_v1.2.,2013-08-22 02:32:00,
2013-08-21 21:37:00,80.1,71.0,29.88,South,180,1.0,6.0,74,0.00,,,0.00,0,HR-IXPWINDi_r2_v1.2.,2013-08-22 02:37:00,
2013-08-21 21:42:00,79.8,70.7,29.88,SSW,208,1.0,6.0,74,0.00,,,0.00,0,HR-IXPWINDi_r2_v1.2.,2013-08-22 02:42:00,
2013-08-21 21:48:00,79.7,71.0,29.88,SW,215,2.0,7.0,75,0.00,,,0.00,0,HR-IXPWINDi_r2_v1.2.,2013-08-22 02:48:00,
2013-08-21 21:53:00,79.5,70.8,29.88,WSW,237,2.0,7.0,75,0.00,,,0.00,0,HR-IXPWINDi_r2_v1.2.,2013-08-22 02:53:00,
2013-08-21 21:58:00,79.2,70.5,29.87,SSW,202,0.0,4.0,75,0.00,,,0.00,0,HR-IXPWINDi_r2_v1.2.,2013-08-22 02:58:00,
2013-08-21 22:03:00,79.0,70.3,29.87,SSW,198,1.0,4.0,75,0.00,,,0.00,0,HR-IXPWINDi_r2_v1.2.,2013-08-22 03:03:00,
2013-08-21 22:09:00,79.0,70.3,29.87,SSW,203,0.0,4.0,75,0.00,,,0.00,0,HR-IXPWINDi_r2_v1.2.,2013-08-22 03:09:00,
2013-08-21 22:14:00,79.0,70.3,29.86,WSW,257,1.0,6.0,75,0.00,,,0.00,0,HR-IXPWINDi_r2_v1.2.,2013-08-22 03:14:00,
2013-08-21 22:19:00,79.0,70.3,29.86,SE,144,4.0,6.0,75,0.00,,,0.00,0,HR-IXPWINDi_r2_v1.2.,2013-08-22 03:19:00,
2013-08-21 22:24:00,79.1,70.0,29.86,South,175,4.0,7.0,74,0.00,,,0.00,0,HR-IXPWINDi_r2_v1.2.,2013-08-22 03:24:00,
2013-08-21 22:29:00,79.3,70.2,29.86,SW,223,0.0,9.0,74,0.00,,,0.00,0,HR-IXPWINDi_r2_v1.2.,2013-08-22 03:29:00,
2013-08-21 22:35:00,79.4,70.3,29.86,SSW,210,2.0,9.0,74,0.00,,,0.00,0,HR-IXPWINDi_r2_v1.2.,2013-08-22 03:35:00,
2013-08-21 22:40:00,79.2,70.1,29.87,South,171,1.0,7.0,74,0.00,,,0.00,0,HR-IXPWINDi_r2_v1.2.,2013-08-22 03:40:00,
2013-08-21 22:45:00,79.2,70.1,29.87,SSW,206,1.0,7.0,74,0.00,,,0.00,0,HR-IXPWINDi_r2_v1.2.,2013-08-22 03:45:00,
2013-08-21 22:50:00,79.2,70.1,29.87,SSW,202,0.0,7.0,74,0.00,,,0.00,0,HR-IXPWINDi_r2_v1.2.,2013-08-22 03:50:00,
2013-08-21 22:56:00,79.0,70.3,29.87,South,186,0.0,5.0,75,0.00,,,0.00,0,HR-IXPWINDi_r2_v1.2.,2013-08-22 03:56:00,
2013-08-21 23:01:00,78.9,70.2,29.87,SSW,194,0.0,5.0,75,0.00,,,0.00,0,HR-IXPWINDi_r2_v1.2.,2013-08-22 04:01:00,
2013-08-21 23:06:00,78.8,70.2,29.87,SSW,204,0.0,5.0,75,0.00,,,0.00,0,HR-IXPWINDi_r2_v1.2.,2013-08-22 04:06:00,
2013-08-21 23:11:00,78.5,69.9,29.87,SSW,207,0.0,4.0,75,0.00,,,0.00,0,HR-IXPWINDi_r2_v1.2.,2013-08-22 04:11:00,
2013-08-21 23:16:00,78.5,69.9,29.87,SSE,167,1.0,6.0,75,0.00,,,0.00,0,HR-IXPWINDi_r2_v1.2.,2013-08-22 04:16:00,
2013-08-21 23:21:00,78.5,69.9,29.88,SSW,199,1.0,6.0,75,0.00,,,0.00,0,HR-IXPWINDi_r2_v1.2.,2013-08-22 04:21:00,
2013-08-21 23:26:00,78.4,70.2,29.89,SSW,209,2.0,6.0,76,0.00,,,0.00,0,HR-IXPWINDi_r2_v1.2.,2013-08-22 04:26:00,
2013-08-21 23:32:00,78.3,70.1,29.90,SSW,209,2.0,5.0,76,0.00,,,0.00,0,HR-IXPWINDi_r2_v1.2.,2013-08-22 04:32:00,
2013-08-21 23:37:00,78.1,69.9,29.90,SSW,194,0.0,4.0,76,0.00,,,0.00,0,HR-IXPWINDi_r2_v1.2.,2013-08-22 04:37:00,
2013-08-21 23:42:00,78.0,69.8,29.89,SSW,192,2.0,6.0,76,0.00,,,0.00,0,HR-IXPWINDi_r2_v1.2.,2013-08-22 04:42:00,
2013-08-21 23:47:00,78.0,69.8,29.88,SSE,151,1.0,6.0,76,0.00,,,0.00,0,HR-IXPWINDi_r2_v1.2.,2013-08-22 04:47:00,
2013-08-21 23:53:00,77.9,69.7,29.88,SSW,204,3.0,7.0,76,0.00,,,0.00,0,HR-IXPWINDi_r2_v1.2.,2013-08-22 04:53:00,
2013-08-21 23:58:00,78.0,69.8,29.88,South,178,2.0,7.0,76,0.00,,,0.00,0,HR-IXPWINDi_r2_v1.2.,2013-08-22 04:58:00,